Other Public Products
Issued by NWS Charleston, SC

Current Version | Previous Version | Text Only | Print | Product List | Glossary Off
Versions: 1 2 3 4 5 6 7 8 9 10 11 12 13 14 15 16 17 18 19 20 21 22 23 24 25 26 27 28 29 30 31 32 33 34 35 36 37 38 39 40 41 42 43 44 45 46 47 48 49 50
000 FPUS82 KCHS 190512 OPUCHS TEST...KCHS/KSAV Gateway Observations...TEST National Weather Service Charleston SC 100 AM EDT SAT AUG 19 2017 NOTE: "fair" indicates few or no clouds below 12,000 feet with no significant weather and/or obstructions to visibility. SCZ050-WAZ558-NCZ071-TXZ119-213-PAZ071-DCZ001-FLZ074-172-MI076- NYZ176-178-MAZ016-IL014-TNZ027-NJZ106-GAZ044-MD014-190600- ...Gateway Observations for Charleston International... CITY SKY/WX TMP DP RH WIND PRES REMARKS Chas Airport FAIR 82 79 90 S7 29.96R HX 92 Seattle MOCLDY 69 56 62 NE10 30.14S Charlotte MOCLDY 80 72 76 SE5 29.96R Dallas DFW FAIR 81 75 82 E3 29.98R Dallas Love FAIR 83 74 74 SE7 29.98R Philladelphia CLOUDY 76 73 91 SW13 29.83S Wash National CLOUDY 78 77 96 S7 29.87R Baltimore MOCLDY 75 75 100 SW6 29.85S Miami FAIR 82 74 76 NW5 30.02F Detroit MOCLDY 67 61 81 SW5 29.90R Newark CLOUDY 74 72 93 SW8 29.79F Laguardia LGT RAIN 76 72 87 SW8 29.78F J F K MOCLDY 73 73 100 SW10 29.80F Boston Logan FOG 73 73 100 S6 29.77F VSB 3/4 Ft. Lauderdale FAIR 83 75 77 N3 30.01F HX 90 Chicago O`Hare MOCLDY 72 59 63 NW9 29.89S Chicago Midway MOCLDY 74 60 61 NW12 29.89R Houston Bush FAIR 84 76 76 S5 30.01R HX 93 Houston Hobby FAIR 84 76 76 S3 30.01R HX 93 Nashville FAIR 72 67 84 S3 30.00S Atlanta FAIR 75 66 73 NW3 30.00S $$ GAZ044-118-TXZ119-213-NCZ071-DCZ001-MDZ014-506-PAZ021-071-NJZ106- NYZ176-178-MAZ106-OHZ011-021-055-MIZ076-KYZ091-ILZ014-INZ047- MNZ060-ONZ431-190600- ...Gateway Observations for Savannah International... CITY SKY/WX TMP DP RH WIND PRES REMARKS Savannah Arpt FAIR 81 73 76 SW9 29.98R Atlanta FAIR 75 66 73 NW3 30.00S Charlotte MOCLDY 80 72 76 SE5 29.96R Dallas DFW FAIR 81 75 82 E3 29.98R Houston Bush FAIR 84 76 76 S5 30.01R HX 93 Wash National CLOUDY 78 77 96 S7 29.87R Wash Dulles CLOUDY 76 76 100 S3 29.88R Baltimore MOCLDY 75 75 100 SW6 29.85S Philadelphia CLOUDY 76 73 91 SW13 29.83S Newark CLOUDY 74 72 93 SW8 29.79F Laguardia LGT RAIN 76 72 87 SW8 29.78F J F K MOCLDY 73 73 100 SW10 29.80F Boston FOG 73 73 100 S6 29.77F VSB 3/4 Pittsburg FAIR 70 64 81 W3 29.93R Akron FAIR 68 60 75 SW3 29.93R Cleveland FAIR 70 63 78 SW6 29.92R Cincinnati FAIR 71 66 84 W7 29.96R Columbus FAIR 68 64 87 SW3 29.93R Detroit MOCLDY 67 61 81 SW5 29.90R Chicago O`Hare MOCLDY 72 59 63 NW9 29.89S Minneapolis MOCLDY 66 60 81 CALM 29.92S Indianapolis MOCLDY 70 63 78 SW6 29.93S Toronto Canada MOCLDY 68 63 83 W13 29.80R $$

USA.gov is the U.S. government's official web portal to all federal, state and local government web resources and services.